Kremmling, CO

8:12 AM MDT on May 27, 2018 (GMT -0600)
Kremmling

Weather History for K20V - September, 2012

Change the Weather History Date:

Thursday, September 20, 2012

  Actual Average Record
Temperature  
Mean Temperature 54 °F -  
Max Temperature 77 °F - 82 °F (2005)
Min Temperature 30 °F - 24 °F (2005)
Degree Days  
Heating Degree Days 12    
Month to date heating degree days  
Cooling Degree Days 0    
Month to date cooling degree days  
Growing Degree Days 4 (Base 50)    
Moisture  
Dew Point 17 °F    
Average Humidity 35    
Maximum Humidity 75    
Minimum Humidity 5    
Precipitation  
Precipitation 0.00 in - 0.44 in (2004)
Sea Level Pressure  
Sea Level Pressure 30.35 in    
Wind  
Wind Speed 1 mph (NW)    
Max Wind Speed 12 mph    
Max Gust Speed 16 mph    
Visibility 10 miles    
Events      
T = Trace of Precipitation, MM = Missing Value Source: NWS Daily Summary

Daily Weather History Graph

Daily Weather History Graph

Search for Another Location

Airport or City:

Astronomy

Sep. 20, 2012 Rise Set
Actual Time 6:51 AM MDT 7:04 PM MDT
Civil Twilight 6:24 AM MDT 7:32 PM MDT
Nautical Twilight 5:52 AM MDT 8:03 PM MDT
Astronomical Twilight 5:20 AM MDT 8:35 PM MDT
Moon 12:12 PM MDT (9/20) 10:09 PM MDT (9/20)
Length of Visible Light 13h 07m
Length of Day
12h 13m
Waxing Crescent, 27% of the Moon is Illuminated
Sep 20
Waxing Crescent
Sep 22
First Quarter
Sep 29
Full
Oct 8
Last Quarter
Oct 15
New

Hourly Weather History & Observations

Time (MDT) Temp. Dew Point Humidity Pressure Visibility Wind Dir Wind Speed Gust Speed Precip Events Conditions
12:15 AM 39.2 °F 21.2 °F 49% 30.37 in 10.0 mi Calm Calm - N/A   Clear
12:35 AM 37.4 °F 21.2 °F 52% 30.37 in 10.0 mi Calm Calm - N/A   Clear
12:55 AM 35.6 °F 19.4 °F 52% 30.37 in 10.0 mi Calm Calm - N/A   Clear
1:15 AM 35.6 °F 21.2 °F 56% 30.38 in 10.0 mi Calm Calm - N/A   Clear
1:35 AM 35.6 °F 23.0 °F 60% 30.38 in 10.0 mi Calm Calm - N/A   Clear
1:55 AM 33.8 °F 23.0 °F 65% 30.38 in 10.0 mi Calm Calm - N/A   Clear
2:14 AM 33.8 °F 21.2 °F 60% 30.38 in 10.0 mi Calm Calm - N/A   Clear
2:35 AM 33.8 °F 21.2 °F 60% 30.38 in 10.0 mi Calm Calm - N/A   Clear
2:54 AM 35.6 °F 24.8 °F 65% 30.38 in 10.0 mi Calm Calm - N/A   Clear
3:15 AM 32.0 °F 23.0 °F 69% 30.38 in 10.0 mi Calm Calm - N/A   Clear
3:35 AM 32.0 °F 19.4 °F 60% 30.38 in 10.0 mi Calm Calm - N/A   Clear
4:15 AM 32.0 °F 21.2 °F 64% 30.39 in 10.0 mi Calm Calm - N/A   Clear
4:35 AM 32.0 °F 23.0 °F 69% 30.39 in 10.0 mi Calm Calm - N/A   Clear
4:55 AM 30.2 °F 21.2 °F 69% 30.39 in 10.0 mi Calm Calm - N/A   Clear
5:15 AM 32.0 °F 21.2 °F 64% 30.39 in 10.0 mi Calm Calm - N/A   Clear
5:35 AM 32.0 °F 21.2 °F 64% 30.39 in 10.0 mi Calm Calm - N/A   Clear
5:55 AM 30.2 °F 19.4 °F 64% 30.40 in 10.0 mi Calm Calm - N/A   Clear
6:15 AM 30.2 °F 19.4 °F 64% 30.40 in 10.0 mi Calm Calm - N/A   Clear
6:35 AM 30.2 °F 21.2 °F 69% 30.41 in 10.0 mi Calm Calm - N/A   Clear
6:55 AM 30.2 °F 21.2 °F 69% 30.41 in 10.0 mi Calm Calm - N/A   Clear
7:15 AM 30.2 °F 23.0 °F 75% 30.41 in 10.0 mi Calm Calm - N/A   Clear
7:35 AM 30.2 °F 21.2 °F 69% 30.41 in 10.0 mi Calm Calm - N/A   Clear
7:55 AM 32.0 °F 23.0 °F 69% 30.41 in 10.0 mi Calm Calm - N/A   Clear
8:15 AM 33.8 °F 21.2 °F 60% 30.41 in 10.0 mi Calm Calm - N/A   Clear
8:35 AM 35.6 °F 23.0 °F 60% 30.41 in 10.0 mi Calm Calm - N/A   Clear
8:55 AM 37.4 °F 23.0 °F 56% 30.41 in 10.0 mi Calm Calm - N/A   Clear
9:15 AM 41.0 °F 23.0 °F 49% 30.41 in 10.0 mi Calm Calm - N/A   Clear
9:55 AM 46.4 °F 23.0 °F 40% 30.41 in 10.0 mi Calm Calm - N/A   Clear
10:14 AM 50.0 °F 23.0 °F 35% 30.41 in 10.0 mi Calm Calm - N/A   Clear
10:35 AM 51.8 °F 21.2 °F 30% 30.40 in 10.0 mi Calm Calm - N/A   Clear
10:55 AM 53.6 °F 21.2 °F 28% 30.39 in 10.0 mi Calm Calm - N/A   Clear
11:15 AM 55.4 °F 21.2 °F 26% 30.38 in 10.0 mi Calm Calm - N/A   Clear
11:35 AM 59.0 °F 21.2 °F 23% 30.37 in 10.0 mi Calm Calm - N/A   Clear
11:55 AM 60.8 °F 21.2 °F 22% 30.36 in 10.0 mi Calm Calm - N/A   Clear
12:15 PM 62.6 °F 19.4 °F 19% 30.35 in 10.0 mi Calm Calm - N/A   Clear
12:35 PM 68.0 °F 19.4 °F 16% 30.34 in 10.0 mi NW 3.5 mph - N/A   Clear
12:54 PM 69.8 °F 19.4 °F 15% 30.33 in 10.0 mi West 3.5 mph - N/A   Clear
1:15 PM 69.8 °F 14.0 °F 12% 30.32 in 10.0 mi Calm Calm - N/A   Clear
1:35 PM 73.4 °F 12.2 °F 10% 30.32 in 10.0 mi Calm Calm - N/A   Clear
1:55 PM 73.4 °F 10.4 °F 9% 30.30 in 10.0 mi SW 5.8 mph - N/A   Clear
2:15 PM 73.4 °F 6.8 °F 8% 30.30 in 10.0 mi Calm Calm - N/A   Clear
2:35 PM 75.2 °F 6.8 °F 7% 30.29 in 10.0 mi SSW 5.8 mph - N/A   Clear
2:55 PM 77.0 °F 3.2 °F 6% 30.28 in 10.0 mi Calm Calm - N/A   Clear
3:15 PM 75.2 °F 3.2 °F 6% 30.28 in 10.0 mi NNW 11.5 mph 16.1 mph N/A   Clear
3:35 PM 73.4 °F 1.4 °F 6% 30.27 in 10.0 mi NNW 3.5 mph - N/A   Clear
3:55 PM 75.2 °F -2.2 °F 5% 30.27 in 10.0 mi NW 3.5 mph - N/A   Clear
4:15 PM 77.0 °F 1.4 °F 5% 30.27 in 10.0 mi NW 10.4 mph - N/A   Clear
4:35 PM 73.4 °F 5.0 °F 7% 30.27 in 10.0 mi WNW 8.1 mph - N/A   Clear
4:54 PM 73.4 °F 3.2 °F 6% 30.27 in 10.0 mi NNW 9.2 mph - N/A   Clear
5:15 PM 73.4 °F 3.2 °F 6% 30.27 in 10.0 mi NW 6.9 mph - N/A   Clear
5:35 PM 73.4 °F 3.2 °F 6% 30.27 in 10.0 mi NW 9.2 mph - N/A   Clear
5:55 PM 71.6 °F 5.0 °F 7% 30.27 in 10.0 mi NNW 9.2 mph - N/A   Clear
6:15 PM 69.8 °F 6.8 °F 9% 30.27 in 10.0 mi NW 6.9 mph - N/A   Clear
6:35 PM 69.8 °F 10.4 °F 10% 30.28 in 10.0 mi NW 9.2 mph - N/A   Clear
6:55 PM 69.8 °F 12.2 °F 11% 30.29 in 10.0 mi NW 10.4 mph - N/A   Clear
7:15 PM 64.4 °F 12.2 °F 13% 30.29 in 10.0 mi NW 9.2 mph - N/A   Clear
7:35 PM 62.6 °F 12.2 °F 14% 30.30 in 10.0 mi NNW 5.8 mph - N/A   Clear
7:55 PM 60.8 °F 14.0 °F 16% 30.31 in 10.0 mi NW 5.8 mph - N/A   Clear
8:15 PM 60.8 °F 12.2 °F 15% 30.31 in 10.0 mi Calm Calm - N/A   Clear
8:35 PM 60.8 °F 12.2 °F 15% 30.32 in 10.0 mi NNW 3.5 mph - N/A   Clear
8:55 PM 55.4 °F 17.6 °F 23% 30.33 in 10.0 mi SSW 3.5 mph - N/A   Clear
9:15 PM 53.6 °F 17.6 °F 24% 30.33 in 10.0 mi SSW 5.8 mph - N/A   Clear
9:35 PM 53.6 °F 17.6 °F 24% 30.34 in 10.0 mi Calm Calm - N/A   Clear
9:54 PM 50.0 °F 15.8 °F 26% 30.34 in 10.0 mi Calm Calm - N/A   Clear
10:15 PM 50.0 °F 19.4 °F 30% 30.35 in 10.0 mi Calm Calm - N/A   Clear
10:35 PM 50.0 °F 21.2 °F 32% 30.35 in 10.0 mi Calm Calm - N/A   Clear
10:55 PM 48.2 °F 23.0 °F 37% 30.36 in 10.0 mi Calm Calm - N/A   Clear
11:15 PM 46.4 °F 23.0 °F 40% 30.36 in 10.0 mi Calm Calm - N/A   Clear
11:35 PM 42.8 °F 23.0 °F 46% 30.36 in 10.0 mi Calm Calm - N/A   Clear
11:54 PM 42.8 °F 21.2 °F 42% 30.36 in 10.0 mi Calm Calm - N/A   Clear